Location: Amherst
(42.5000°N, 72.5000°W)
Time: 03:35:32
(UTC-04:00)

ISS - Pass Details

Date: 23 May 2018
Orbit: 402 x 407 km, 51.6° (Epoch: 27 May)

Event Time Altitude Azimuth Distance (km) Brightness Sun altitude
Rises 02:25:05 0° 306° (NW) 2,319 0.2 -23.0°
Reaches altitude 10° 02:27:15 10° 314° (NW) 1,458 -0.8 -22.8°
Maximum altitude 02:30:21 40° 26° (NNE) 605 -2.5 -22.5°
Drops below altitude 10° 02:33:27 10° 99° (E) 1,452 -0.8 -22.3°
Sets 02:35:36 0° 107° (ESE) 2,309 0.1 -22.1°
